Regional Weather Roundup
Issued by NWS

Home | Current Version | Previous Version | Graphics & Text | Print | Product List | Glossary On
Versions: 1 2 3 4 5 6 7 8 9 10 11 12 13 14 15 16 17 18 19 20 21 22 23 24 25 26 27 28 29 30 31 32 33 34 35 36 37 38 39 40 41 42 43 44 45 46 47 48 49 50
000
ASUS45 KBOI 040910
RWRID

IDAHO REGIONAL WEATHER ROUNDUP
NATIONAL WEATHER SERVICE BOISE ID
300 AM MDT WED MAY 04 2016

NOTE: "FAIR" INDICATES FEW OR NO CLOUDS BELOW 12000 FEET
WITH NO SIGNIFICANT WEATHER AND/OR OBSTRUCTIONS TO VISIBILITY

IDZ012-014-041000-
SOUTHWEST IDAHO


CITY           SKY/WX    TMP DP  RH WIND       PRES   REMARKS
BOISE          PTCLDY    62  34  35 SE8       29.99F
CALDWELL       PTCLDY    57  38  48 E6        29.98F
MOUNTAIN HOME  CLEAR     55  36  50 SE15      30.02S
$$

IDZ016-017-041000-
SOUTHCENTRAL IDAHO


CITY           SKY/WX    TMP DP  RH WIND       PRES   REMARKS
BURLEY         PTCLDY    51  33  50 SE7       30.10F
JEROME         PTCLDY    53  29  39 E9        30.10S
TWIN FALLS     PTCLDY    57  30  35 S16       30.08S
$$

IDZ019>023-041000-
SOUTHEAST IDAHO


CITY           SKY/WX    TMP DP  RH WIND       PRES   REMARKS
IDAHO FALLS    CLEAR     40  31  70 N6        30.18S
POCATELLO      CLEAR     41  37  86 N8        30.17S
REXBURG        CLEAR     40  31  70 CALM      30.18F
$$

IDZ006-010-011-018-031-032-041000-
CENTRAL IDAHO MOUNTAINS


CITY           SKY/WX    TMP DP  RH WIND       PRES   REMARKS
MCCALL         CLEAR     41  35  79 N3        30.12S
HAILEY         PTCLDY    45  32  61 NW10      30.20F
STANLEY          N/A     34  25  69 CALM      30.24S
SALMON         CLEAR     43  28  56 S3        30.12R
CHALLIS        CLEAR     44  26  49 CALM      30.17S
$$

IDZ002-004-006-007-026-041000-
NORTHERN IDAHO


CITY           SKY/WX    TMP DP  RH WIND       PRES   REMARKS
LEWISTON       MOCLDY    58  47  66 CALM      29.97R
LOWELL           N/A     51  48  89 N3        30.03S
COEUR D`ALENE  CLEAR     52  43  71 E5        29.95R
MULLAN PASS    CLEAR     56  28  34 S5        30.13F
$$



USA.gov is the U.S. government's official web portal to all federal, state and local government web resources and services.